Content
SEND FEEDBACK

Daily
Averages
Monthly
Summary
United States of America

RALEIGH, NORTH CAROLINA


Home > North America > United States > North Carolina
Elevation: 376 feet     Latitude: 35 52N     Longitude: 078 47W

WEATHER
 
SELECT A DAY
Number of Records: 195,897;   Date Range: 1/1/95 - 10/22/14
 
SHARE

PRINT THIS DATA

[ ← Previous Day ]
WEATHER ALMANAC - MARCH 17, 2013
[ Next Day → ]
[ °C ]   °F
Weather ElementAverageHighLow
Temperature50.6 °F55.9 °F (1:51 am)39.2 °F (11:28 pm)
Dewpoint44 °F51.8 °F (6:23 am)35.1 °F (9:51 pm)
Humidity79.1 %94 % (6:23 am)62 % (12:51 pm)
Barometer30.02 in30.18 in (11:28 pm)29.85 in (1:51 am)
Wind Speed10.2 mph16.1 mph (8:51 pm)
Wind Gust23 mph (1:51 pm)
Weather ElementAverage
Visibility7.3 mi
Wind DirectionENE (60.9 °)

Weather ElementTotal
Precipitation---
Heating Degree Days17.5 (Base 65)
Averaged from 32 records on March 17, 2013
WEATHER CONDITIONS BREAKOUT
WIND DIRECTION BREAKOUT
WEATHER BY HOUR - MARCH 17, 2013
[ °C ]   °F
Local TimeTemperatureDewpointHumidityBarometerVisibilityWind DirectionWind SpeedGust SpeedPrecipitationEventsConditions
1:51 AM55.9 °F48.0 °F75 %29.85 in10.0 miWSW (240°)4.6 mphPartly Cloudy
2:51 AM55.9 °F48.0 °F75 %29.86 in10.0 miCalmScattered Clouds
3:51 AM54.0 °F46.9 °F77 %29.87 in10.0 miCalmScattered Clouds
4:51 AM52.0 °F46.9 °F83 %29.89 in10.0 miNNE (20°)3.5 mphScattered Clouds
5:51 AM54.0 °F50.0 °F86 %29.91 in10.0 miENE (70°)9.2 mphMostly Cloudy
6:14 AM53.6 °F50.0 °F88 %29.94 in9.0 miENE (60°)11.5 mphMostly Cloudy
6:23 AM53.6 °F51.8 °F94 %29.94 in9.0 miENE (60°)10.4 mphMostly Cloudy
6:51 AM53.1 °F51.1 °F93 %29.94 in6.0 miENE (60°)9.2 mphOvercast
7:30 AM53.6 °F51.8 °F94 %29.97 in2.0 miNE (50°)6.9 mphOvercast
7:51 AM53.1 °F51.1 °F93 %29.96 in2.0 miNE (50°)6.9 mphOvercast
8:15 AM53.6 °F51.8 °F94 %29.97 in1.5 miENE (70°)8.1 mphOvercast
8:36 AM53.6 °F51.8 °F94 %29.97 in0.5 miEast (100°)9.2 mphFogFog
8:51 AM53.1 °F51.1 °F93 %29.98 in0.5 miENE (60°)11.5 mphFogFog
9:51 AM52.0 °F48.9 °F89 %30.02 in1.0 miNE (50°)9.2 mphOvercast
10:04 AM53.6 °F48.2 °F82 %30.02 in6.0 miNE (50°)9.2 mphOvercast
10:27 AM55.4 °F46.4 °F72 %30.03 in8.0 miNE (50°)9.2 mphMostly Cloudy
10:51 AM55.9 °F46.0 °F69 %30.04 in8.0 miNE (40°)11.5 mph18.4 mphMostly Cloudy
11:51 AM55.0 °F43.0 °F64 %30.06 in9.0 miENE (70°)12.7 mph19.6 mphOvercast
12:51 PM55.0 °F42.1 °F62 %30.06 in10.0 miNE (50°)13.8 mph19.6 mphOvercast
1:51 PM52.0 °F39.9 °F63 %30.06 in10.0 miNE (40°)15.0 mph23.0 mphOvercast
2:51 PM51.8 °F39.2 °F62 %30.05 in10.0 miNE (50°)12.7 mphOvercast
3:51 PM50.0 °F39.0 °F66 %30.04 in10.0 miENE (60°)12.7 mphOvercast
4:51 PM48.9 °F37.9 °F66 %30.05 in10.0 miNE (50°)13.8 mph19.6 mphOvercast
5:51 PM48.0 °F37.0 °F66 %30.06 in10.0 miENE (70°)13.8 mph19.6 mphOvercast
6:51 PM46.0 °F37.0 °F71 %30.09 in10.0 miNE (50°)15.0 mph21.9 mphOvercast
7:51 PM45.0 °F36.0 °F71 %30.11 in10.0 miENE (60°)13.8 mphOvercast
8:51 PM44.1 °F36.0 °F73 %30.12 in9.0 miEast (80°)16.1 mph19.6 mphOvercast
9:34 PM42.8 °F35.6 °F76 %30.14 in9.0 miENE (70°)13.8 mph20.7 mphOvercast
9:51 PM43.0 °F35.1 °F74 %30.16 in10.0 miENE (70°)13.8 mphOvercast
10:51 PM42.1 °F36.0 °F79 %30.17 in7.0 miENE (60°)10.4 mphOvercast
11:28 PM39.2 °F37.4 °F93 %30.18 in3.0 miENE (70°)8.1 mph0.00 inRainLight Rain
11:51 PM39.9 °F37.9 °F93 %30.18 in3.0 miENE (70°)9.2 mph0.00 inRainLight Rain
Hourly data recorded from KRDU, located miles away from Raleigh, North Carolina







STORIES FROM OUR PARTNERS